GW3138 Weather Reports


Display with metric or nautical units.
time (UTC)temp
F
wind
direction
speed
MPH
gust
MPH
rain 1hr
in
rain 24hr
in
rain mn
in
humidity
%
barometer
mb
20260505111531 55 137 0.0 1.0 0.00 0.00 0.00 73 1014.7
20260505111012 55 0 0.0 1.0 0.00 0.00 0.00 73 1014.5
20260505110514 55 0 0.0 1.0 0.00 0.00 0.00 73 1014.5
20260505102019 55 0 0.0 1.0 0.00 0.00 0.00 71 1014.5
20260505101529 55 0 0.0 1.0 0.00 0.00 0.00 70 1014.5
20260505101013 56 0 0.0 1.0 0.00 0.00 0.00 70 1014.5
20260505100516 56 0 0.0 1.0 0.00 0.00 0.00 69 1014.4
20260505100032 56 0 0.0 1.0 0.00 0.00 0.00 69 1014.4
20260505095513 56 145 0.0 1.0 0.00 0.00 0.00 69 1014.4
20260505095013 56 0 0.0 1.0 0.00 0.00 0.00 68 1014.4
20260505094529 56 146 0.0 1.0 0.00 0.00 0.00 68 1014.3
20260505094014 56 145 0.0 1.0 0.00 0.00 0.00 68 1014.6
20260505093512 56 0 0.0 1.0 0.00 0.00 0.00 67 1014.6
20260505093037 57 0 0.0 1.0 0.00 0.00 0.00 67 1014.6
20260505092511 57 150 0.0 1.0 0.00 0.00 0.00 67 1014.7
20260505092013 57 149 0.0 1.0 0.00 0.00 0.00 66 1014.6
20260505091531 57 147 0.0 1.0 0.00 0.00 0.00 65 1014.5
20260505091012 57 158 0.0 2.0 0.00 0.00 0.00 65 1014.5
20260505090512 58 159 0.0 2.0 0.00 0.00 0.00 64 1014.4
20260505090041 58 150 0.0 2.0 0.00 0.00 0.00 64 1014.5
20260505085515 58 157 0.0 3.0 0.00 0.00 0.00 63 1014.6
20260505085012 58 155 1.0 4.0 0.00 0.00 0.00 63 1014.7
20260505084532 58 165 2.0 4.0 0.00 0.00 0.00 63 1014.6
20260505084013 58 162 1.0 3.0 0.00 0.00 0.00 63 1014.6
20260505083512 58 158 1.0 2.0 0.00 0.00 0.00 63 1014.6
20260505083030 58 160 0.0 3.0 0.00 0.00 0.00 63 1014.6
20260505082511 58 162 1.0 3.0 0.00 0.00 0.00 62 1014.6
20260505082011 58 160 0.0 3.0 0.00 0.00 0.00 63 1014.6
20260505081536 59 158 1.0 3.0 0.00 0.00 0.00 62 1014.9
20260505081011 59 158 1.0 3.0 0.00 0.00 0.00 62 1014.9
20260505080512 59 158 0.0 1.0 0.00 0.00 0.00 61 1014.9
20260505080037 59 160 0.0 1.0 0.00 0.00 0.00 61 1014.7
20260505075513 59 160 0.0 1.0 0.00 0.02 0.00 60 1014.6
20260505075012 60 158 0.0 2.0 0.00 0.02 0.00 60 1014.6
20260505074530 60 0 0.0 2.0 0.00 0.02 0.00 59 1014.6
20260505074012 60 155 0.0 1.0 0.00 0.02 0.00 59 1014.6
20260505073512 60 153 0.0 1.0 0.00 0.02 0.00 59 1014.7
20260505073046 61 157 0.0 1.0 0.00 0.02 0.00 58 1014.7
20260505072516 61 0 0.0 1.0 0.00 0.02 0.00 57 1014.6
20260505072010 61 156 0.0 1.0 0.00 0.02 0.00 57 1014.6
20260505071531 61 155 0.0 2.0 0.00 0.02 0.00 57 1014.6
20260505071014 61 152 0.0 2.0 0.00 0.02 0.00 56 1014.5
20260505070513 61 145 0.0 2.0 0.00 0.02 0.00 56 1014.6
20260505070030 62 153 1.0 2.0 0.00 0.02 0.00 56 1014.7
20260505065513 62 151 0.0 2.0 0.00 0.02 0.00 55 1014.9
20260505065012 62 144 1.0 2.0 0.00 0.02 0.00 55 1014.9
20260505064539 62 162 1.0 2.0 0.00 0.02 0.00 54 1014.7
20260505064013 62 160 0.0 2.0 0.00 0.02 0.00 54 1014.8
20260505063513 62 155 0.0 3.0 0.00 0.02 0.00 54 1014.7
20260505063031 63 158 1.0 3.0 0.00 0.02 0.00 54 1014.7
20260505062511 63 163 1.0 3.0 0.00 0.02 0.00 53 1014.8
20260505062020 63 161 1.0 3.0 0.00 0.02 0.00 54 1014.9
20260505061545 62 161 1.0 5.0 0.00 0.02 0.00 54 1015.0
20260505061011 62 158 1.0 5.0 0.00 0.02 0.00 54 1014.7
20260505060512 62 170 1.0 3.0 0.00 0.02 0.00 54 1014.8
20260505060033 62 154 1.0 4.0 0.00 0.02 0.00 54 1014.7
20260505055514 62 159 1.0 4.0 0.00 0.02 0.00 54 1014.9
20260505055015 62 158 1.0 2.0 0.00 0.02 0.00 54 1015.1
20260505054552 63 0 0.0 3.0 0.00 0.02 0.00 52 1015.1
20260505054015 64 160 1.0 3.0 0.00 0.02 0.00 51 1015.0
20260505053513 64 159 0.0 3.0 0.00 0.02 0.00 50 1015.0
20260505053034 64 158 0.0 2.0 0.00 0.02 0.00 50 1015.0
20260505052511 64 158 0.0 2.0 0.00 0.02 0.00 50 1015.1
20260505052014 64 155 0.0 2.0 0.00 0.02 0.00 50 1015.2
20260505051534 65 0 0.0 2.0 0.00 0.02 0.00 49 1015.2
20260505051014 65 0 0.0 2.0 0.00 0.02 0.00 49 1015.2
20260505050511 65 143 0.0 2.0 0.00 0.02 0.00 49 1015.1
20260505041532 64 158 2.0 5.0 0.00 0.02 0.00 49 1015.1
20260505041013 64 163 2.0 5.0 0.00 0.02 0.00 49 1015.0
20260505040510 64 172 2.0 4.0 0.00 0.02 0.00 49 1015.1
20260505040032 64 160 2.0 4.0 0.00 0.02 0.00 49 1014.9
20260505035510 64 161 1.0 3.0 0.00 0.02 0.02 49 1015.0
20260505035012 65 161 1.0 3.0 0.00 0.02 0.02 48 1015.1
20260505034532 65 160 1.0 4.0 0.00 0.02 0.02 48 1015.3
20260505034016 65 164 1.0 4.0 0.00 0.02 0.02 48 1015.2
20260505033513 65 130 2.0 4.0 0.00 0.02 0.02 49 1015.2
20260505033033 65 159 1.0 5.0 0.00 0.02 0.02 49 1015.1
20260505032513 65 165 2.0 7.0 0.00 0.02 0.02 48 1015.1
20260505032012 66 160 3.0 7.0 0.00 0.02 0.02 48 1015.2
20260505031542 65 160 2.0 5.0 0.00 0.02 0.02 48 1015.3
20260505031011 66 165 2.0 5.0 0.00 0.02 0.02 47 1015.2
20260505030511 65 157 2.0 7.0 0.00 0.02 0.02 47 1015.2
20260505030030 65 163 2.0 7.0 0.00 0.02 0.02 47 1015.1
20260505025513 65 162 2.0 7.0 0.00 0.02 0.02 47 1015.1
20260505025018 65 174 2.0 6.0 0.00 0.02 0.02 47 1015.0
20260505024538 65 168 2.0 6.0 0.00 0.02 0.02 48 1015.2
20260505024011 65 166 2.0 4.0 0.00 0.02 0.02 48 1015.2
20260505023511 65 157 1.0 3.0 0.00 0.02 0.02 48 1015.2
20260505023030 65 155 1.0 4.0 0.00 0.02 0.02 48 1015.1
20260505022512 65 169 1.0 5.0 0.00 0.02 0.02 47 1014.9
20260505022012 65 160 2.0 5.0 0.00 0.02 0.02 48 1015.0
20260505021533 66 171 1.0 4.0 0.00 0.02 0.02 48 1015.1
20260505021012 66 155 1.0 4.0 0.00 0.02 0.02 48 1015.1
20260505020512 66 162 1.0 3.0 0.00 0.02 0.02 49 1015.1
20260505020034 66 155 1.0 3.0 0.00 0.02 0.02 49 1015.0
20260505015518 66 163 2.0 3.0 0.00 0.02 0.02 49 1014.7
20260505015014 66 152 1.0 3.0 0.00 0.02 0.02 50 1014.8
20260505014536 66 160 1.0 2.0 0.00 0.02 0.02 50 1014.8
20260505014017 66 163 1.0 2.0 0.00 0.02 0.02 50 1014.8
20260505013514 66 155 1.0 2.0 0.00 0.02 0.02 50 1014.7
20260505013029 66 154 0.0 2.0 0.00 0.02 0.02 51 1014.7
20260505012512 66 156 0.0 2.0 0.00 0.02 0.02 51 1014.5
20260505012012 66 160 0.0 2.0 0.00 0.02 0.02 51 1014.5
20260505011535 66 153 0.0 1.0 0.00 0.02 0.02 50 1014.5
20260505011013 67 149 0.0 1.0 0.00 0.02 0.02 50 1014.6
20260505010513 67 155 0.0 1.0 0.00 0.02 0.02 50 1014.6
20260505010032 67 155 0.0 1.0 0.00 0.02 0.02 51 1014.6
20260505005514 67 154 0.0 1.0 0.00 0.02 0.02 50 1014.5
20260505005012 67 158 0.0 1.0 0.00 0.02 0.02 50 1014.3
20260505004544 67 153 0.0 1.0 0.00 0.02 0.02 50 1014.3
20260505004011 67 151 0.0 1.0 0.00 0.02 0.02 50 1014.4
20260505003511 67 0 0.0 1.0 0.00 0.02 0.02 50 1014.5
20260505003032 67 151 0.0 1.0 0.00 0.02 0.02 50 1014.4
20260505002518 67 152 0.0 1.0 0.00 0.02 0.02 50 1014.4
20260505002022 68 150 0.0 1.0 0.00 0.02 0.02 51 1014.4
20260505001532 68 150 0.0 1.0 0.00 0.02 0.02 51 1014.4
20260505001019 68 150 0.0 1.0 0.00 0.02 0.02 51 1014.4
20260505000513 68 147 0.0 1.0 0.00 0.02 0.02 51 1014.4
20260505000047 69 0 0.0 1.0 0.00 0.02 0.02 52 1014.4
20260504235514 69 0 0.0 1.0 0.00 0.02 0.02 51 1014.4
20260504235013 69 0 0.0 1.0 0.00 0.02 0.02 51 1014.5
20260504234531 69 0 0.0 1.0 0.00 0.02 0.02 50 1014.4
20260504234010 69 0 0.0 1.0 0.00 0.02 0.02 50 1014.4
20260504233513 70 0 0.0 0.0 0.00 0.02 0.02 50 1014.5
20260504233030 70 0 0.0 0.0 0.00 0.02 0.02 49 1014.6
20260504232514 70 0 0.0 0.0 0.00 0.02 0.02 49 1014.6
20260504232018 70 0 0.0 0.0 0.00 0.02 0.02 48 1014.6
20260504231531 70 0 0.0 1.0 0.00 0.02 0.02 48 1014.7
20260504231012 71 0 0.0 1.0 0.00 0.02 0.02 47 1014.6
20260504230513 71 0 0.0 1.0 0.00 0.02 0.02 46 1014.5
20260504230030 71 137 0.0 1.0 0.00 0.02 0.02 46 1014.6
20260504225514 71 0 0.0 1.0 0.00 0.02 0.02 46 1014.6
20260504225015 72 0 0.0 1.0 0.00 0.02 0.02 45 1014.6
20260504224529 72 0 0.0 1.0 0.00 0.02 0.02 45 1014.7
20260504224014 72 0 0.0 1.0 0.00 0.02 0.02 46 1014.5
20260504223511 73 147 0.0 1.0 0.00 0.02 0.02 48 1014.6
20260504223031 73 0 0.0 1.0 0.00 0.02 0.02 46 1014.7
20260504222511 73 148 0.0 1.0 0.00 0.02 0.02 45 1014.8
20260504222017 74 0 0.0 1.0 0.00 0.02 0.02 45 1014.7
20260504221535 75 154 0.0 1.0 0.00 0.02 0.02 45 1014.7
20260504221011 75 0 0.0 1.0 0.00 0.02 0.02 46 1014.6
20260504220512 76 127 0.0 1.0 0.00 0.02 0.02 44 1014.7
20260504220032 76 0 0.0 1.0 0.00 0.02 0.02 43 1014.7
20260504215511 77 0 0.0 1.0 0.00 0.02 0.02 43 1014.6
20260504215013 77 0 0.0 1.0 0.00 0.02 0.02 42 1014.7
20260504214534 77 143 0.0 1.0 0.00 0.02 0.02 42 1014.6
20260504214013 77 149 0.0 1.0 0.00 0.02 0.02 42 1014.5
20260504213514 78 0 0.0 1.0 0.00 0.02 0.02 43 1014.6
20260504213034 78 136 0.0 1.0 0.00 0.02 0.02 42 1014.6
20260504212515 78 0 0.0 1.0 0.00 0.02 0.02 42 1014.7
20260504212013 78 0 0.0 1.0 0.00 0.02 0.02 43 1014.7
20260504211530 79 144 0.0 1.0 0.00 0.02 0.02 42 1014.7
20260504211010 79 106 0.0 1.0 0.00 0.02 0.02 44 1014.6
20260504210515 79 0 0.0 1.0 0.00 0.02 0.02 44 1014.6
20260504210032 78 0 0.0 1.0 0.00 0.02 0.02 43 1014.9
20260504205514 78 0 0.0 1.0 0.00 0.02 0.02 42 1015.1
20260504205014 79 0 0.0 1.0 0.00 0.02 0.02 43 1015.1
20260504204534 78 0 0.0 1.0 0.00 0.02 0.02 45 1015.1
20260504204013 78 0 0.0 1.0 0.00 0.02 0.02 46 1014.9
20260504203518 77 0 0.0 1.0 0.00 0.02 0.02 45 1015.0
20260504203030 76 0 0.0 0.0 0.00 0.02 0.02 46 1015.1
20260504202517 77 0 0.0 1.0 0.00 0.02 0.02 43 1015.2
20260504202017 77 0 0.0 1.0 0.00 0.02 0.02 44 1015.3
20260504201530 77 153 0.0 1.0 0.00 0.02 0.02 44 1015.3
20260504201010 77 0 0.0 1.0 0.00 0.02 0.02 45 1015.1
20260504200511 77 0 0.0 1.0 0.00 0.02 0.02 45 1015.2
20260504200032 77 0 0.0 1.0 0.00 0.02 0.02 45 1015.3
20260504195513 77 0 0.0 1.0 0.00 0.02 0.02 43 1015.4
20260504195014 77 0 0.0 1.0 0.00 0.02 0.02 44 1015.5
20260504194530 78 150 0.0 1.0 0.00 0.02 0.02 44 1015.6
20260504194012 78 0 0.0 1.0 0.00 0.02 0.02 43 1015.7
20260504193514 77 123 0.0 1.0 0.00 0.02 0.02 44 1015.8
20260504193031 76 123 0.0 4.0 0.00 0.02 0.02 46 1015.9
20260504192511 76 0 1.0 4.0 0.00 0.02 0.02 48 1016.0
20260504192017 77 0 0.0 3.0 0.00 0.02 0.02 45 1016.1
20260504191531 76 0 0.0 3.0 0.00 0.02 0.02 46 1016.1
20260504191011 77 0 0.0 2.0 0.00 0.02 0.02 43 1016.2
20260504190515 77 127 0.0 2.0 0.00 0.02 0.02 45 1016.2
20260504190030 77 0 0.0 3.0 0.00 0.02 0.02 43 1016.2
20260504185512 78 105 0.0 3.0 0.00 0.02 0.02 46 1016.4
20260504185012 77 0 0.0 2.0 0.00 0.02 0.02 44 1016.4
20260504184532 77 0 0.0 2.0 0.00 0.02 0.02 47 1016.4
20260504184013 77 0 0.0 5.0 0.00 0.02 0.02 46 1016.6
20260504183516 76 0 0.0 5.0 0.00 0.02 0.02 51 1016.6
20260504183029 75 91 1.0 5.0 0.00 0.02 0.02 47 1016.7
20260504182513 76 68 1.0 2.0 0.00 0.02 0.02 46 1016.7
20260504182016 76 91 0.0 2.0 0.00 0.02 0.02 48 1016.7
20260504181532 75 0 0.0 3.0 0.00 0.02 0.02 48 1016.8
20260504181012 75 45 0.0 3.0 0.00 0.02 0.02 49 1016.8
20260504180517 74 33 0.0 4.0 0.00 0.02 0.02 51 1016.9
20260504180033 74 0 1.0 4.0 0.00 0.02 0.02 47 1016.9
20260504175517 73 124 0.0 5.0 0.00 0.02 0.02 50 1016.9
20260504175013 72 0 2.0 6.0 0.00 0.02 0.02 51 1017.0
20260504174530 73 4 1.0 6.0 0.00 0.02 0.02 48 1017.2
20260504174012 74 94 0.0 6.0 0.00 0.02 0.02 47 1017.2
20260504173513 73 0 1.0 6.0 0.00 0.02 0.02 51 1017.2
20260504173034 73 286 0.0 4.0 0.00 0.02 0.02 53 1017.3
20260504172509 72 28 1.0 4.0 0.00 0.02 0.02 54 1017.4
20260504172014 73 37 0.0 4.0 0.00 0.02 0.02 51 1017.5
20260504171532 74 52 0.0 4.0 0.00 0.02 0.02 50 1017.6
20260504171014 73 65 1.0 4.0 0.00 0.02 0.02 50 1017.7
20260504170512 74 116 0.0 2.0 0.00 0.02 0.02 55 1017.6
20260504151010 66 0 1.0 4.0 0.00 0.02 0.02 57 1018.5
20260504150511 65 0 0.0 4.0 0.00 0.02 0.02 58 1018.5
20260504141013 64 0 0.0 1.0 0.00 0.02 0.02 60 1018.9
20260504140513 63 121 0.0 1.0 0.00 0.02 0.02 64 1018.8
20260504130511 56 0 0.0 0.0 0.00 0.02 0.02 91 1018.6